Year,Month,Day,Hour,Minute,Value (Times are PST for temperature in C)
2007,06,05,00,00,13.80
2007,06,05,00,01,13.70
2007,06,05,00,02,13.70
2007,06,05,00,03,13.70
2007,06,05,00,04,13.60
2007,06,05,00,05,13.60
2007,06,05,00,06,13.70
2007,06,05,00,07,13.70
2007,06,05,00,08,13.70
2007,06,05,00,09,13.70
2007,06,05,00,10,13.80
2007,06,05,00,11,13.80
2007,06,05,00,12,13.80
2007,06,05,00,13,13.80
2007,06,05,00,14,13.70
2007,06,05,00,15,13.70
2007,06,05,00,16,13.70
2007,06,05,00,17,13.60
2007,06,05,00,18,13.60
2007,06,05,00,19,13.60
2007,06,05,00,20,13.60
2007,06,05,00,21,13.60
2007,06,05,00,22,13.60
2007,06,05,00,23,13.60
2007,06,05,00,24,13.60
2007,06,05,00,25,13.60
2007,06,05,00,26,13.50
2007,06,05,00,27,13.50
2007,06,05,00,28,13.50
2007,06,05,00,29,13.50
2007,06,05,00,30,13.40
2007,06,05,00,31,13.40
2007,06,05,00,32,13.40
2007,06,05,00,33,13.40
2007,06,05,00,34,13.40
2007,06,05,00,35,13.40
2007,06,05,00,36,13.30
2007,06,05,00,37,13.30
2007,06,05,00,38,13.30
2007,06,05,00,39,13.30
2007,06,05,00,40,13.30
2007,06,05,00,41,13.30
2007,06,05,00,42,13.30
2007,06,05,00,43,13.30
2007,06,05,00,44,13.30
2007,06,05,00,45,13.30
2007,06,05,00,46,13.30
2007,06,05,00,47,13.30
2007,06,05,00,48,13.30
2007,06,05,00,49,13.30
2007,06,05,00,50,13.30
2007,06,05,00,51,13.30
2007,06,05,00,52,13.30
2007,06,05,00,53,13.30
2007,06,05,00,54,13.30
2007,06,05,00,55,13.30
2007,06,05,00,56,13.30
2007,06,05,00,57,13.30
2007,06,05,00,58,13.30
2007,06,05,00,59,13.30
2007,06,05,01,00,13.30
2007,06,05,01,01,13.30
2007,06,05,01,02,13.30
2007,06,05,01,03,13.40
2007,06,05,01,04,13.40
2007,06,05,01,05,13.40
2007,06,05,01,06,13.40
2007,06,05,01,07,13.40
2007,06,05,01,08,13.30
2007,06,05,01,09,13.30
2007,06,05,01,10,13.30
2007,06,05,01,11,13.30
2007,06,05,01,12,13.30
2007,06,05,01,13,13.30
2007,06,05,01,14,13.30
2007,06,05,01,15,13.30
2007,06,05,01,16,13.30
2007,06,05,01,17,13.30
2007,06,05,01,18,13.30
2007,06,05,01,19,13.30
2007,06,05,01,20,13.30
2007,06,05,01,21,13.30
2007,06,05,01,22,13.30
2007,06,05,01,23,13.30
2007,06,05,01,24,13.30
2007,06,05,01,25,13.30
2007,06,05,01,26,13.30
2007,06,05,01,27,13.30
2007,06,05,01,28,13.30
2007,06,05,01,29,13.30
2007,06,05,01,30,13.40
2007,06,05,01,31,13.40
2007,06,05,01,32,13.40
2007,06,05,01,33,13.40
2007,06,05,01,34,13.50
2007,06,05,01,35,13.50
2007,06,05,01,36,13.60
2007,06,05,01,37,13.70
2007,06,05,01,38,13.70
2007,06,05,01,39,13.70
2007,06,05,01,40,13.70
2007,06,05,01,41,13.70
2007,06,05,01,42,13.70
2007,06,05,01,43,13.80
2007,06,05,01,44,13.80
2007,06,05,01,45,13.80
2007,06,05,01,46,13.80
2007,06,05,01,47,13.80
2007,06,05,01,48,13.80
2007,06,05,01,49,13.80
2007,06,05,01,50,13.80
2007,06,05,01,51,13.80
2007,06,05,01,52,13.90
2007,06,05,01,53,13.90
2007,06,05,01,54,14.00
2007,06,05,01,55,14.00
2007,06,05,01,56,14.00
2007,06,05,01,57,14.00
2007,06,05,01,58,14.00
2007,06,05,01,59,13.90
2007,06,05,02,00,13.90
2007,06,05,02,01,13.90
2007,06,05,02,02,13.90
2007,06,05,02,03,13.90
2007,06,05,02,04,13.90
2007,06,05,02,05,13.90
2007,06,05,02,06,13.90
2007,06,05,02,07,13.90
2007,06,05,02,08,13.90
2007,06,05,02,09,13.90
2007,06,05,02,10,13.90
2007,06,05,02,11,13.90
2007,06,05,02,12,13.90
2007,06,05,02,13,13.90
2007,06,05,02,14,13.90
2007,06,05,02,15,13.90
2007,06,05,02,16,13.90
2007,06,05,02,17,14.00
2007,06,05,02,18,14.00
2007,06,05,02,19,14.00
2007,06,05,02,20,14.00
2007,06,05,02,21,14.00
2007,06,05,02,22,14.10
2007,06,05,02,23,14.00
2007,06,05,02,24,14.00
2007,06,05,02,25,14.00
2007,06,05,02,26,14.00
2007,06,05,02,27,13.90
2007,06,05,02,28,13.90
2007,06,05,02,29,13.90
2007,06,05,02,30,13.90
2007,06,05,02,31,13.90
2007,06,05,02,32,13.90
2007,06,05,02,33,13.90
2007,06,05,02,34,13.90
2007,06,05,02,35,13.90
2007,06,05,02,36,13.80
2007,06,05,02,37,13.80
2007,06,05,02,38,13.80
2007,06,05,02,39,13.80
2007,06,05,02,40,13.80
2007,06,05,02,41,13.80
2007,06,05,02,42,13.80
2007,06,05,02,43,13.70
2007,06,05,02,44,13.70
2007,06,05,02,45,13.70
2007,06,05,02,46,13.70
2007,06,05,02,47,13.70
2007,06,05,02,48,13.70
2007,06,05,02,49,13.70
2007,06,05,02,50,13.60
2007,06,05,02,51,13.60
2007,06,05,02,52,13.60
2007,06,05,02,53,13.60
2007,06,05,02,54,13.60
2007,06,05,02,55,13.60
2007,06,05,02,56,13.60
2007,06,05,02,57,13.70
2007,06,05,02,58,13.70
2007,06,05,02,59,13.70
2007,06,05,03,00,13.70
2007,06,05,03,01,13.70
2007,06,05,03,02,13.70
2007,06,05,03,03,13.70
2007,06,05,03,04,13.70
2007,06,05,03,05,13.70
2007,06,05,03,06,13.70
2007,06,05,03,07,13.70
2007,06,05,03,08,13.70
2007,06,05,03,09,13.70
2007,06,05,03,10,13.70
2007,06,05,03,11,13.70
2007,06,05,03,12,13.70
2007,06,05,03,13,13.70
2007,06,05,03,14,13.70
2007,06,05,03,15,13.70
2007,06,05,03,16,13.70
2007,06,05,03,17,13.70
2007,06,05,03,18,13.70
2007,06,05,03,19,13.70
2007,06,05,03,20,13.70
2007,06,05,03,21,13.70
2007,06,05,03,22,13.70
2007,06,05,03,23,13.70
2007,06,05,03,24,13.70
2007,06,05,03,25,13.70
2007,06,05,03,26,13.70
2007,06,05,03,27,13.70
2007,06,05,03,28,13.70
2007,06,05,03,29,13.70
2007,06,05,03,30,13.70
2007,06,05,03,31,13.70
2007,06,05,03,32,13.80
2007,06,05,03,33,13.80
2007,06,05,03,34,13.80
2007,06,05,03,35,13.80
2007,06,05,03,36,13.80
2007,06,05,03,37,13.80
2007,06,05,03,38,13.70
2007,06,05,03,39,13.70
2007,06,05,03,40,13.80
2007,06,05,03,41,13.80
2007,06,05,03,42,13.80
2007,06,05,03,43,13.80
2007,06,05,03,44,13.80
2007,06,05,03,45,13.80
2007,06,05,03,46,13.80
2007,06,05,03,47,13.80
2007,06,05,03,48,13.80
2007,06,05,03,49,13.80
2007,06,05,03,50,13.80
2007,06,05,03,51,13.80
2007,06,05,03,52,13.80
2007,06,05,03,53,13.70
2007,06,05,03,54,13.70
2007,06,05,03,55,13.70
2007,06,05,03,56,13.70
2007,06,05,03,57,13.70
2007,06,05,03,58,13.70
2007,06,05,03,59,13.70
2007,06,05,04,00,13.70
2007,06,05,04,01,13.70
2007,06,05,04,02,13.60
2007,06,05,04,03,13.60
2007,06,05,04,04,13.60
2007,06,05,04,05,13.60
2007,06,05,04,06,13.60
2007,06,05,04,07,13.50
2007,06,05,04,08,13.50
2007,06,05,04,09,13.50
2007,06,05,04,10,13.50
2007,06,05,04,11,13.50
2007,06,05,04,12,13.50
2007,06,05,04,13,13.50
2007,06,05,04,14,13.50
2007,06,05,04,15,13.50
2007,06,05,04,16,13.50
2007,06,05,04,17,13.50
2007,06,05,04,18,13.50
2007,06,05,04,19,13.50
2007,06,05,04,20,13.50
2007,06,05,04,21,13.50
2007,06,05,04,22,13.50
2007,06,05,04,23,13.50
2007,06,05,04,24,13.50
2007,06,05,04,25,13.50
2007,06,05,04,26,13.50
2007,06,05,04,27,13.50
2007,06,05,04,28,13.50
2007,06,05,04,29,13.50
2007,06,05,04,30,13.50
2007,06,05,04,31,13.50
2007,06,05,04,32,13.50
2007,06,05,04,33,13.50
2007,06,05,04,34,13.50
2007,06,05,04,35,13.50
2007,06,05,04,36,13.50
2007,06,05,04,37,13.40
2007,06,05,04,38,13.40
2007,06,05,04,39,13.40
2007,06,05,04,40,13.40
2007,06,05,04,41,13.40
2007,06,05,04,42,13.40
2007,06,05,04,43,13.40
2007,06,05,04,44,13.40
2007,06,05,04,45,13.40
2007,06,05,04,46,13.40
2007,06,05,04,47,13.40
2007,06,05,04,48,13.40
2007,06,05,04,49,13.40
2007,06,05,04,50,13.40
2007,06,05,04,51,13.40
2007,06,05,04,52,13.40
2007,06,05,04,53,13.40
2007,06,05,04,54,13.40
2007,06,05,04,55,13.40
2007,06,05,04,56,13.40
2007,06,05,04,57,13.40
2007,06,05,04,58,13.30
2007,06,05,04,59,13.30
2007,06,05,05,00,13.30
2007,06,05,05,01,13.30
2007,06,05,05,02,13.30
2007,06,05,05,03,13.30
2007,06,05,05,04,13.30
2007,06,05,05,05,13.30
2007,06,05,05,06,13.30
2007,06,05,05,07,13.30
2007,06,05,05,08,13.30
2007,06,05,05,09,13.30
2007,06,05,05,10,13.30
2007,06,05,05,11,13.30
2007,06,05,05,12,13.40
2007,06,05,05,13,13.40
2007,06,05,05,14,13.40
2007,06,05,05,15,13.40
2007,06,05,05,16,13.40
2007,06,05,05,17,13.40
2007,06,05,05,18,13.40
2007,06,05,05,19,13.40
2007,06,05,05,20,13.40
2007,06,05,05,21,13.40
2007,06,05,05,22,13.40
2007,06,05,05,23,13.30
2007,06,05,05,24,13.30
2007,06,05,05,25,13.20
2007,06,05,05,26,13.10
2007,06,05,05,27,13.00
2007,06,05,05,28,12.90
2007,06,05,05,29,12.80
2007,06,05,05,30,12.80
2007,06,05,05,31,12.80
2007,06,05,05,32,12.80
2007,06,05,05,33,12.80
2007,06,05,05,34,12.80
2007,06,05,05,35,12.80
2007,06,05,05,36,12.80
2007,06,05,05,37,12.80
2007,06,05,05,38,12.80
2007,06,05,05,39,12.80
2007,06,05,05,40,12.80
2007,06,05,05,41,12.80
2007,06,05,05,42,12.70
2007,06,05,05,43,12.70
2007,06,05,05,44,12.80
2007,06,05,05,45,12.80
2007,06,05,05,46,12.80
2007,06,05,05,47,12.80
2007,06,05,05,48,12.80
2007,06,05,05,49,12.80
2007,06,05,05,50,12.80
2007,06,05,05,51,12.80
2007,06,05,05,52,12.80
2007,06,05,05,53,12.80
2007,06,05,05,54,12.80
2007,06,05,05,55,12.90
2007,06,05,05,56,12.90
2007,06,05,05,57,12.90
2007,06,05,05,58,12.90
2007,06,05,05,59,13.00
2007,06,05,06,00,13.00
2007,06,05,06,01,13.00
2007,06,05,06,02,13.00
2007,06,05,06,03,13.10
2007,06,05,06,04,13.10
2007,06,05,06,05,13.10
2007,06,05,06,06,13.10
2007,06,05,06,07,13.10
2007,06,05,06,08,13.10
2007,06,05,06,09,13.20
2007,06,05,06,10,13.20
2007,06,05,06,11,13.20
2007,06,05,06,12,13.20
2007,06,05,06,13,13.20
2007,06,05,06,14,13.20
2007,06,05,06,15,13.20
2007,06,05,06,16,13.20
2007,06,05,06,17,13.20
2007,06,05,06,18,13.10
2007,06,05,06,19,13.10
2007,06,05,06,20,13.10
2007,06,05,06,21,13.20
2007,06,05,06,22,13.20
2007,06,05,06,23,13.20
2007,06,05,06,24,13.20
2007,06,05,06,25,13.10
2007,06,05,06,26,13.20
2007,06,05,06,27,13.20
2007,06,05,06,28,13.20
2007,06,05,06,29,13.10
2007,06,05,06,30,13.10
2007,06,05,06,31,13.10
2007,06,05,06,32,13.10
2007,06,05,06,33,13.10
2007,06,05,06,34,13.10
2007,06,05,06,35,13.10
2007,06,05,06,36,13.10
2007,06,05,06,37,13.00
2007,06,05,06,38,13.00
2007,06,05,06,39,13.00
2007,06,05,06,40,13.00
2007,06,05,06,41,13.00
2007,06,05,06,42,13.00
2007,06,05,06,43,13.00
2007,06,05,06,44,13.00
2007,06,05,06,45,13.00
2007,06,05,06,46,13.00
2007,06,05,06,47,13.00
2007,06,05,06,48,13.00
2007,06,05,06,49,13.00
2007,06,05,06,50,13.00
2007,06,05,06,51,13.00
2007,06,05,06,52,13.00
2007,06,05,06,53,13.00
2007,06,05,06,54,13.10
2007,06,05,06,55,13.00
2007,06,05,06,56,13.00
2007,06,05,06,57,13.10
2007,06,05,06,58,13.10
2007,06,05,06,59,13.10
2007,06,05,07,00,13.10
2007,06,05,07,01,13.10
2007,06,05,07,02,13.10
2007,06,05,07,03,13.10
2007,06,05,07,04,13.10
2007,06,05,07,05,13.10
2007,06,05,07,06,13.10
2007,06,05,07,07,13.10
2007,06,05,07,08,13.10
2007,06,05,07,09,13.10
2007,06,05,07,10,13.10
2007,06,05,07,11,13.00
2007,06,05,07,12,13.00
2007,06,05,07,13,13.00
2007,06,05,07,14,13.00
2007,06,05,07,15,12.90
2007,06,05,07,16,12.90
2007,06,05,07,17,12.90
2007,06,05,07,18,12.90
2007,06,05,07,19,12.80
2007,06,05,07,20,12.80
2007,06,05,07,21,12.80
2007,06,05,07,22,12.80
2007,06,05,07,23,12.80
2007,06,05,07,24,12.80
2007,06,05,07,25,12.70
2007,06,05,07,26,12.70
2007,06,05,07,27,12.70
2007,06,05,07,28,12.70
2007,06,05,07,29,12.70
2007,06,05,07,30,12.70
2007,06,05,07,31,12.70
2007,06,05,07,32,12.70
2007,06,05,07,33,12.60
2007,06,05,07,34,12.60
2007,06,05,07,35,12.60
2007,06,05,07,36,12.60
2007,06,05,07,37,12.60
2007,06,05,07,38,12.60
2007,06,05,07,39,12.60
2007,06,05,07,40,12.70
2007,06,05,07,41,12.70
2007,06,05,07,42,12.70
2007,06,05,07,43,12.70
2007,06,05,07,44,12.70
2007,06,05,07,45,12.70
2007,06,05,07,46,12.60
2007,06,05,07,47,12.70
2007,06,05,07,48,12.70
2007,06,05,07,49,12.70
2007,06,05,07,50,12.70
2007,06,05,07,51,12.80
2007,06,05,07,52,12.80
2007,06,05,07,53,12.80
2007,06,05,07,54,12.80
2007,06,05,07,55,12.80
2007,06,05,07,56,12.80
2007,06,05,07,57,12.80
2007,06,05,07,58,12.80
2007,06,05,07,59,12.80
2007,06,05,08,00,12.80
2007,06,05,08,01,12.80
2007,06,05,08,02,12.90
2007,06,05,08,03,12.90
2007,06,05,08,04,12.90
2007,06,05,08,05,12.90
2007,06,05,08,06,12.90
2007,06,05,08,07,12.90
2007,06,05,08,08,12.90
2007,06,05,08,09,12.90
2007,06,05,08,10,12.90
2007,06,05,08,11,12.90
2007,06,05,08,12,12.90
2007,06,05,08,13,12.90
2007,06,05,08,14,12.90
2007,06,05,08,15,12.90
2007,06,05,08,16,12.90
2007,06,05,08,17,12.90
2007,06,05,08,18,12.90
2007,06,05,08,19,12.80
2007,06,05,08,20,12.80
2007,06,05,08,21,12.80
2007,06,05,08,22,12.80
2007,06,05,08,23,12.80
2007,06,05,08,24,12.80
2007,06,05,08,25,12.80
2007,06,05,08,26,12.80
2007,06,05,08,27,12.80
2007,06,05,08,28,12.80
2007,06,05,08,29,12.80
2007,06,05,08,30,12.80
2007,06,05,08,31,12.80
2007,06,05,08,32,12.80
2007,06,05,08,33,12.80
2007,06,05,08,34,12.80
2007,06,05,08,35,12.80
2007,06,05,08,36,12.80
2007,06,05,08,37,12.80
2007,06,05,08,38,12.80
2007,06,05,08,39,12.80
2007,06,05,08,40,12.80
2007,06,05,08,41,12.80
2007,06,05,08,42,12.80
2007,06,05,08,43,12.80
2007,06,05,08,44,12.80
2007,06,05,08,45,12.80
2007,06,05,08,46,12.80
2007,06,05,08,47,12.80
2007,06,05,08,48,12.80
2007,06,05,08,49,12.80
2007,06,05,08,50,12.70
2007,06,05,08,51,12.70
2007,06,05,08,52,12.70
2007,06,05,08,53,12.70
2007,06,05,08,54,12.70
2007,06,05,08,55,12.70
2007,06,05,08,56,12.70
2007,06,05,08,57,12.70
2007,06,05,08,58,12.70
2007,06,05,08,59,12.70
2007,06,05,09,00,12.70
2007,06,05,09,01,12.70
2007,06,05,09,02,12.70
2007,06,05,09,03,12.70
2007,06,05,09,04,12.70
2007,06,05,09,05,12.70
2007,06,05,09,06,12.70
2007,06,05,09,07,12.70
2007,06,05,09,08,12.70
2007,06,05,09,09,12.70
2007,06,05,09,10,12.70
2007,06,05,09,11,12.70
2007,06,05,09,12,12.70
2007,06,05,09,13,12.70
2007,06,05,09,14,12.60
2007,06,05,09,15,12.60
2007,06,05,09,16,12.70
2007,06,05,09,17,12.70
2007,06,05,09,18,12.70
2007,06,05,09,19,12.70
2007,06,05,09,20,12.70
2007,06,05,09,21,12.70
2007,06,05,09,22,12.70
2007,06,05,09,23,12.70
2007,06,05,09,24,12.70
2007,06,05,09,25,12.70
2007,06,05,09,26,12.70
2007,06,05,09,27,12.70
2007,06,05,09,28,12.70
2007,06,05,09,29,12.70
2007,06,05,09,30,12.70
2007,06,05,09,31,12.70
2007,06,05,09,32,12.70
2007,06,05,09,33,12.60
2007,06,05,09,34,12.60
2007,06,05,09,35,12.60
2007,06,05,09,36,12.60
2007,06,05,09,37,12.60
2007,06,05,09,38,12.60
2007,06,05,09,39,12.60
2007,06,05,09,40,12.60
2007,06,05,09,41,12.50
2007,06,05,09,42,12.50
2007,06,05,09,43,12.50
2007,06,05,09,44,12.50
2007,06,05,09,45,12.50
2007,06,05,09,46,12.50
2007,06,05,09,47,12.50
2007,06,05,09,48,12.40
2007,06,05,09,49,12.40
2007,06,05,09,50,12.40
2007,06,05,09,51,12.40
2007,06,05,09,52,12.40
2007,06,05,09,53,12.40
2007,06,05,09,54,12.40
2007,06,05,09,55,12.40
2007,06,05,09,56,12.40
2007,06,05,09,57,12.40
2007,06,05,09,58,12.40
2007,06,05,09,59,12.50
2007,06,05,10,00,12.50
2007,06,05,10,01,12.50
2007,06,05,10,02,12.50
2007,06,05,10,03,12.50
2007,06,05,10,04,12.50
2007,06,05,10,05,12.50
2007,06,05,10,06,12.50
2007,06,05,10,07,12.50
2007,06,05,10,08,12.50
2007,06,05,10,09,12.50
2007,06,05,10,10,12.50
2007,06,05,10,11,12.50
2007,06,05,10,12,12.50
2007,06,05,10,13,12.50
2007,06,05,10,14,12.50
2007,06,05,10,15,12.50
2007,06,05,10,16,12.50
2007,06,05,10,17,12.50
2007,06,05,10,18,12.50
2007,06,05,10,19,12.40
2007,06,05,10,20,12.40
2007,06,05,10,21,12.40
2007,06,05,10,22,12.40
2007,06,05,10,23,12.30
2007,06,05,10,24,12.30
2007,06,05,10,25,12.30
2007,06,05,10,26,12.30
2007,06,05,10,27,12.30
2007,06,05,10,28,12.30
2007,06,05,10,29,12.30
2007,06,05,10,30,12.20
2007,06,05,10,31,12.20
2007,06,05,10,32,12.20
2007,06,05,10,33,12.10
2007,06,05,10,34,12.10
2007,06,05,10,35,12.10
2007,06,05,10,36,12.10
2007,06,05,10,37,12.00
2007,06,05,10,38,12.00
2007,06,05,10,39,11.90
2007,06,05,10,40,11.90
2007,06,05,10,41,11.80
2007,06,05,10,42,11.80
2007,06,05,10,43,11.80
2007,06,05,10,44,11.80
2007,06,05,10,45,11.80
2007,06,05,10,46,11.80
2007,06,05,10,47,11.80
2007,06,05,10,48,11.70
2007,06,05,10,49,11.70
2007,06,05,10,50,11.70
2007,06,05,10,51,11.70
2007,06,05,10,52,11.60
2007,06,05,10,53,11.60
2007,06,05,10,54,11.60
2007,06,05,10,55,11.60
2007,06,05,10,56,11.60
2007,06,05,10,57,11.60
2007,06,05,10,58,11.60
2007,06,05,10,59,11.60
2007,06,05,11,00,11.60
2007,06,05,11,01,11.60
2007,06,05,11,02,11.70
2007,06,05,11,03,11.70
2007,06,05,11,04,11.70
2007,06,05,11,05,11.80
2007,06,05,11,06,11.80
2007,06,05,11,07,11.80
2007,06,05,11,08,11.80
2007,06,05,11,09,11.80
2007,06,05,11,10,11.80
2007,06,05,11,11,11.80
2007,06,05,11,12,11.80
2007,06,05,11,13,11.80
2007,06,05,11,14,11.80
2007,06,05,11,15,11.80
2007,06,05,11,16,11.90
2007,06,05,11,17,11.90
2007,06,05,11,18,11.90
2007,06,05,11,19,11.90
2007,06,05,11,20,11.90
2007,06,05,11,21,11.90
2007,06,05,11,22,11.90
2007,06,05,11,23,12.00
2007,06,05,11,24,12.00
2007,06,05,11,25,12.00
2007,06,05,11,26,12.10
2007,06,05,11,27,12.10
2007,06,05,11,28,12.10
2007,06,05,11,29,12.20
2007,06,05,11,30,12.20
2007,06,05,11,31,12.30
2007,06,05,11,32,12.30
2007,06,05,11,33,12.30
2007,06,05,11,34,12.30
2007,06,05,11,35,12.40
2007,06,05,11,36,12.40
2007,06,05,11,37,12.50
2007,06,05,11,38,12.60
2007,06,05,11,39,12.60
2007,06,05,11,40,12.70
2007,06,05,11,41,12.80
2007,06,05,11,42,12.80
2007,06,05,11,43,12.90
2007,06,05,11,44,13.00
2007,06,05,11,45,13.00
2007,06,05,11,46,13.10
2007,06,05,11,47,13.10
2007,06,05,11,48,13.20
2007,06,05,11,49,13.20
2007,06,05,11,50,13.30
2007,06,05,11,51,13.30
2007,06,05,11,52,13.30
2007,06,05,11,53,13.30
2007,06,05,11,54,13.40
2007,06,05,11,55,13.50
2007,06,05,11,56,13.50
2007,06,05,11,57,13.60
2007,06,05,11,58,13.60
2007,06,05,11,59,13.70
2007,06,05,12,00,13.70
2007,06,05,12,01,13.70
2007,06,05,12,02,13.80
2007,06,05,12,03,13.80
2007,06,05,12,04,14.00
2007,06,05,12,05,14.00
2007,06,05,12,06,14.10
2007,06,05,12,07,14.00
2007,06,05,12,08,14.00
2007,06,05,12,09,14.00
2007,06,05,12,10,14.10
2007,06,05,12,11,14.10
2007,06,05,12,12,14.20
2007,06,05,12,13,14.20
2007,06,05,12,14,14.20
2007,06,05,12,15,14.20
2007,06,05,12,16,14.20
2007,06,05,12,17,14.20
2007,06,05,12,18,14.30
2007,06,05,12,19,14.30
2007,06,05,12,20,14.40
2007,06,05,12,21,14.50
2007,06,05,12,22,14.50
2007,06,05,12,23,14.50
2007,06,05,12,24,14.50
2007,06,05,12,25,14.50
2007,06,05,12,26,14.50
2007,06,05,12,27,14.50
2007,06,05,12,28,14.50
2007,06,05,12,29,14.60
2007,06,05,12,30,14.60
2007,06,05,12,31,14.60
2007,06,05,12,32,14.70
2007,06,05,12,33,14.70
2007,06,05,12,34,14.80
2007,06,05,12,35,14.80
2007,06,05,12,36,14.80
2007,06,05,12,37,14.80
2007,06,05,12,38,14.80
2007,06,05,12,39,14.80
2007,06,05,12,40,14.80
2007,06,05,12,41,14.80
2007,06,05,12,42,14.80
2007,06,05,12,43,14.80
2007,06,05,12,44,14.80
2007,06,05,12,45,14.80
2007,06,05,12,46,14.80
2007,06,05,12,47,14.80
2007,06,05,12,48,14.80
2007,06,05,12,49,14.90
2007,06,05,12,50,14.90
2007,06,05,12,51,14.80
2007,06,05,12,52,14.80
2007,06,05,12,53,14.80
2007,06,05,12,54,14.90
2007,06,05,12,55,14.90
2007,06,05,12,56,15.00
2007,06,05,12,57,15.20
2007,06,05,12,58,15.30
2007,06,05,12,59,15.30
2007,06,05,13,00,15.30
2007,06,05,13,01,15.20
2007,06,05,13,02,15.20
2007,06,05,13,03,15.20
2007,06,05,13,04,15.20
2007,06,05,13,05,15.20
2007,06,05,13,06,15.20
2007,06,05,13,07,15.10
2007,06,05,13,08,15.10
2007,06,05,13,09,15.10
2007,06,05,13,10,15.20
2007,06,05,13,11,15.20
2007,06,05,13,12,15.20
2007,06,05,13,13,15.30
2007,06,05,13,14,15.30
2007,06,05,13,15,15.30
2007,06,05,13,16,15.30
2007,06,05,13,17,15.30
2007,06,05,13,18,15.30
2007,06,05,13,19,15.30
2007,06,05,13,20,15.30
2007,06,05,13,21,15.20
2007,06,05,13,22,15.10
2007,06,05,13,23,15.20
2007,06,05,13,24,15.20
2007,06,05,13,25,15.20
2007,06,05,13,26,15.20
2007,06,05,13,27,15.20
2007,06,05,13,28,15.20
2007,06,05,13,29,15.20
2007,06,05,13,30,15.30
2007,06,05,13,31,15.30
2007,06,05,13,32,15.30
2007,06,05,13,33,15.30
2007,06,05,13,34,15.30
2007,06,05,13,35,15.20
2007,06,05,13,36,15.20
2007,06,05,13,37,15.20
2007,06,05,13,38,15.10
2007,06,05,13,39,15.10
2007,06,05,13,40,15.00
2007,06,05,13,41,15.10
2007,06,05,13,42,15.10
2007,06,05,13,43,15.30
2007,06,05,13,44,15.30
2007,06,05,13,45,15.30
2007,06,05,13,46,15.40
2007,06,05,13,47,15.50
2007,06,05,13,48,15.50
2007,06,05,13,49,15.60
2007,06,05,13,50,15.60
2007,06,05,13,51,15.60
2007,06,05,13,52,15.60
2007,06,05,13,53,15.60
2007,06,05,13,54,15.60
2007,06,05,13,55,15.70
2007,06,05,13,56,15.80
2007,06,05,13,57,15.80
2007,06,05,13,58,15.80
2007,06,05,13,59,15.80
2007,06,05,14,00,15.80
2007,06,05,14,01,15.60
2007,06,05,14,02,15.60
2007,06,05,14,03,15.50
2007,06,05,14,04,15.50
2007,06,05,14,05,15.50
2007,06,05,14,06,15.50
2007,06,05,14,07,15.50
2007,06,05,14,08,15.50
2007,06,05,14,09,15.60
2007,06,05,14,10,15.70
2007,06,05,14,11,15.70
2007,06,05,14,12,15.70
2007,06,05,14,13,15.70
2007,06,05,14,14,15.70
2007,06,05,14,15,15.70
2007,06,05,14,16,15.70
2007,06,05,14,17,15.70
2007,06,05,14,18,15.70
2007,06,05,14,19,15.60
2007,06,05,14,20,15.60
2007,06,05,14,21,15.50
2007,06,05,14,22,15.40
2007,06,05,14,23,15.40
2007,06,05,14,24,15.40
2007,06,05,14,25,15.40
2007,06,05,14,26,15.50
2007,06,05,14,27,15.50
2007,06,05,14,28,15.50
2007,06,05,14,29,15.50
2007,06,05,14,30,15.50
2007,06,05,14,31,15.50
2007,06,05,14,32,15.50
2007,06,05,14,33,15.50
2007,06,05,14,34,15.50
2007,06,05,14,35,15.50
2007,06,05,14,36,15.50
2007,06,05,14,37,15.40
2007,06,05,14,38,15.40
2007,06,05,14,39,15.40
2007,06,05,14,40,15.40
2007,06,05,14,41,15.40
2007,06,05,14,42,15.50
2007,06,05,14,43,15.50
2007,06,05,14,44,15.40
2007,06,05,14,45,15.40
2007,06,05,14,46,15.30
2007,06,05,14,47,15.30
2007,06,05,14,48,15.30
2007,06,05,14,49,15.20
2007,06,05,14,50,15.20
2007,06,05,14,51,15.20
2007,06,05,14,52,15.20
2007,06,05,14,53,15.20
2007,06,05,14,54,15.20
2007,06,05,14,55,15.30
2007,06,05,14,56,15.30
2007,06,05,14,57,15.30
2007,06,05,14,58,15.30
2007,06,05,14,59,15.30
2007,06,05,15,00,15.30
2007,06,05,15,01,15.30
2007,06,05,15,02,15.30
2007,06,05,15,03,15.30
2007,06,05,15,04,15.30
2007,06,05,15,05,15.30
2007,06,05,15,06,15.30
2007,06,05,15,07,15.30
2007,06,05,15,08,15.30
2007,06,05,15,09,15.40
2007,06,05,15,10,15.50
2007,06,05,15,11,15.50
2007,06,05,15,12,15.60
2007,06,05,15,13,15.60
2007,06,05,15,14,15.60
2007,06,05,15,15,15.50
2007,06,05,15,16,15.50
2007,06,05,15,17,15.50
2007,06,05,15,18,15.60
2007,06,05,15,19,15.60
2007,06,05,15,20,15.70
2007,06,05,15,21,15.70
2007,06,05,15,22,15.70
2007,06,05,15,23,15.70
2007,06,05,15,24,15.70
2007,06,05,15,25,15.70
2007,06,05,15,26,15.60
2007,06,05,15,27,15.70
2007,06,05,15,28,15.70
2007,06,05,15,29,15.70
2007,06,05,15,30,15.80
2007,06,05,15,31,15.70
2007,06,05,15,32,15.70
2007,06,05,15,33,15.60
2007,06,05,15,34,15.60
2007,06,05,15,35,15.60
2007,06,05,15,36,15.60
2007,06,05,15,37,15.60
2007,06,05,15,38,15.60
2007,06,05,15,39,15.60
2007,06,05,15,40,15.70
2007,06,05,15,41,15.80
2007,06,05,15,42,15.80
2007,06,05,15,43,15.80
2007,06,05,15,44,15.80
2007,06,05,15,45,15.80
2007,06,05,15,46,15.80
2007,06,05,15,47,15.80
2007,06,05,15,48,15.80
2007,06,05,15,49,15.90
2007,06,05,15,50,15.90
2007,06,05,15,51,15.90
2007,06,05,15,52,15.90
2007,06,05,15,53,16.00
2007,06,05,15,54,16.10
2007,06,05,15,55,16.10
2007,06,05,15,56,16.10
2007,06,05,15,57,16.10
2007,06,05,15,58,16.10
2007,06,05,15,59,16.00
2007,06,05,16,00,15.90
2007,06,05,16,01,15.90
2007,06,05,16,02,15.90
2007,06,05,16,03,15.80
2007,06,05,16,04,15.80
2007,06,05,16,05,15.80
2007,06,05,16,06,15.80
2007,06,05,16,07,15.80
2007,06,05,16,08,15.90
2007,06,05,16,09,15.90
2007,06,05,16,10,15.90
2007,06,05,16,11,15.90
2007,06,05,16,12,16.00
2007,06,05,16,13,16.10
2007,06,05,16,14,16.20
2007,06,05,16,15,16.20
2007,06,05,16,16,16.10
2007,06,05,16,17,16.10
2007,06,05,16,18,16.00
2007,06,05,16,19,15.90
2007,06,05,16,20,15.90
2007,06,05,16,21,15.90
2007,06,05,16,22,15.90
2007,06,05,16,23,15.80
2007,06,05,16,24,15.80
2007,06,05,16,25,15.90
2007,06,05,16,26,15.90
2007,06,05,16,27,15.80
2007,06,05,16,28,15.80
2007,06,05,16,29,15.90
2007,06,05,16,30,15.90
2007,06,05,16,31,16.00
2007,06,05,16,32,16.10
2007,06,05,16,33,16.10
2007,06,05,16,34,16.00
2007,06,05,16,35,15.90
2007,06,05,16,36,15.90
2007,06,05,16,37,15.80
2007,06,05,16,38,15.80
2007,06,05,16,39,15.80
2007,06,05,16,40,15.80
2007,06,05,16,41,15.80
2007,06,05,16,42,15.80
2007,06,05,16,43,15.70
2007,06,05,16,44,15.70
2007,06,05,16,45,15.60
2007,06,05,16,46,15.70
2007,06,05,16,47,15.70
2007,06,05,16,48,15.70
2007,06,05,16,49,15.70
2007,06,05,16,50,15.70
2007,06,05,16,51,15.70
2007,06,05,16,52,15.70
2007,06,05,16,53,15.70
2007,06,05,16,54,15.80
2007,06,05,16,55,15.80
2007,06,05,16,56,15.80
2007,06,05,16,57,15.80
2007,06,05,16,58,15.80
2007,06,05,16,59,15.80
2007,06,05,17,00,15.80
2007,06,05,17,01,15.80
2007,06,05,17,02,15.80
2007,06,05,17,03,15.80
2007,06,05,17,04,15.70
2007,06,05,17,05,15.70
2007,06,05,17,06,15.70
2007,06,05,17,07,15.70
2007,06,05,17,08,15.80
2007,06,05,17,09,15.80
2007,06,05,17,10,15.80
2007,06,05,17,11,15.80
2007,06,05,17,12,15.80
2007,06,05,17,13,15.80
2007,06,05,17,14,15.80
2007,06,05,17,15,15.80
2007,06,05,17,16,15.80
2007,06,05,17,17,15.80
2007,06,05,17,18,15.90
2007,06,05,17,19,15.90